Location: ?????
(55.8833°N, 37.6500°E)
Time: 15:15:37
(UTC+00:00)

Cosmos 389 Rocket - Pass Details

Date: 27 February 2020
Orbit: 443 x 477 km, 81.1° (Epoch: 27 March)

Event Time Altitude Azimuth Distance (km) Brightness Sun altitude
Rises 16:05:38 0° 354° (N) 2,550 6.3 -10.2°
Reaches altitude 10° 16:08:15 10° 14° (NNE) 1,666 5.1 -10.6°
Maximum altitude 16:10:52 18° 60° (ENE) 1,227 4.1 -10.9°
Enters shadow 16:11:53 17° 81° (E) 1,300 4.1 -11.1°
